Dewpoint
53 53 53 54 54 54 54 54 54 54 55 55 55 55 55 55 56 56 56 56 57 57 57 57 57 57 50 40 39 49 51 50 51 50 47 46 43 42 39 40 40 40 40 41 42 42 42
53 54 53 53 54 54 54 54 54 55 55 55 55 55 55 55 56 56 56 56 56 56 56 56 56 57 46 32 47 50 48 50 50 48 47 45 43 43 41 41 39 39 40 40 41 41 42
52 52 54 54 54 54 54 54 54 54 55 56 56 55 55 55 55 56 56 56 56 56 56 56 56 54 44 34 48 50 48 48 49 48 46 47 45 43 42 39 41 41 38 39 40 40 40
54 55 55 55 55 55 54 54 54 54 55 56 55 55 55 55 55 56 56 56 56 56 56 56 56 51 35 46 48 48 48 47 48 49 48 48 47 45 43 43 40 39 37 33 35 38 39
55 54 54 54 54 54 54 53 53 54 55 55 55 55 55 55 56 55 56 56 56 56 56 56 49 45 36 50 43 44 47 46 47 48 48 47 46 42 42 37 32 34 32 32 33 36 37
52 52 52 53 53 53 52 53 53 53 54 54 54 54 54 55 56 56 56 54 53 53 53 53 47 37 36 37 45 46 48 47 46 46 45 44 42 37 35 33 23 24 31 32 33 34 34
54 56 55 55 55 54 54 53 53 53 53 53 53 53 54 55 55 56 51 37 32 30 42 32 33 33 35 43 44 44 47 46 46 44 37 40 35 31 32 33 34 34 33 32 34 35 33
55 55 54 54 54 53 53 52 52 51 50 51 51 52 53 54 55 55 43 37 36 40 33 37 36 37 38 38 31 41 46 39 42 36 38 35 32 34 35 35 34 33 31 31 31 33 32
53 53 52 51 51 50 49 49 49 50 50 50 50 50 52 53 54 45 40 39 44 44 35 33 37 32 34 35 32 33 43 40 37 34 34 31 28 36 36 34 32 32 31 31 30 33 31
51 50 49 48 48 48 48 48 48 49 49 48 48 48 50 52 41 43 40 44 45 42 26 25 29 29 36 36 28 40 43 35 32 31 30 30 32 31 34 33 33 30 33 33 34 31 24
48 48 47 47 47 47 47 47 47 47 47 47 47 48 49 50 46 40 40 45 43 35 9 22 27 34 37 30 28 34 43 36 30 26 26 23 33 34 34 34 35 31 35 35 34 31 26
46 46 46 46 46 46 46 46 47 47 47 47 48 48 49 48 44 44 45 45 38 26 11 20 26 27 29 31 31 37 37 38 37 33 30 28 30 32 32 30 35 34 32 29 31 28 19
45 45 45 45 45 45 45 45 45 45 46 48 48 47 48 50 37 46 45 39 23 19 19 16 20 27 27 25 29 32 30 32 25 19 19 23 25 28 31 29 33 33 27 21 16 17 20
44 44 44 44 44 44 44 44 44 45 46 47 48 48 49 50 46 46 43 24 11 11 13 23 23 23 20 24 24 27 25 23 27 23 22 22 19 28 30 28 26 31 27 22 15 18 19
43 43 43 43 44 44 44 44 44 44 46 47 46 45 46 47 46 45 34 22 15 14 20 21 18 18 19 24 21 20 22 22 21 25 20 19 17 26 29 28 26 26 28 29 25 22 19
43 42 42 43 42 42 42 43 43 44 45 46 42 45 43 46 45 41 31 25 14 30 25 21 13 12 17 15 19 17 16 18 21 25 23 18 17 22 25 28 28 26 26 23 24 19 19
41 41 42 42 41 41 42 42 43 42 46 45 39 38 42 46 42 36 26 26 30 28 27 24 19 17 17 16 18 15 14 16 23 26 25 24 21 19 24 24 22 26 23 24 23 24 19
41 41 41 41 41 41 41 41 42 44 46 41 35 28 39 41 30 31 31 32 35 28 29 27 27 24 23 21 17 16 17 17 25 27 23 25 23 21 19 22 24 26 23 23 21 19 21
40 40 40 40 40 40 40 41 42 43 44 40 33 34 41 37 26 29 30 31 33 31 30 29 28 28 28 24 20 18 19 26 28 26 23 25 21 16 14 21 25 22 23 24 23 22 20
39 39 40 40 40 40 40 40 41 42 41 41 35 28 32 34 31 26 28 28 28 30 32 31 30 31 30 29 25 23 23 26 31 29 36 28 21 16 13 12 19 21 22 22 22 19 16
38 39 39 39 39 40 39 39 39 41 39 37 32 31 29 24 24 28 29 30 29 23 24 25 29 23 24 27 29 27 28 28 30 32 33 27 23 21 21 21 21 20 20 20 21 19 17
38 38 40 40 39 39 39 39 39 40 40 33 28 26 26 25 26 22 21 21 25 22 21 18 22 22 22 19 20 20 25 26 26 28 29 30 26 25 23 23 24 22 22 22 22 22 21
38 38 38 40 38 38 38 39 38 39 38 32 33 32 29 23 23 21 20 22 22 22 22 23 23 24 23 21 24 26 27 26 25 24 23 25 27 25 22 21 20 18 20 19 20 23 21
38 39 38 39 40 39 40 37 38 37 38 36 36 32 26 20 23 21 22 23 22 23 24 24 25 25 23 23 25 25 22 23 25 28 25 21 26 28 25 23 18 19 20 21 19 20 22
37 38 37 38 39 38 39 38 37 37 37 35 35 32 28 21 22 20 21 23 24 22 21 22 22 24 24 23 18 14 14 20 23 28 27 25 22 25 24 20 19 21 22 21 21 18 21
38 38 38 38 39 39 38 38 38 36 36 35 34 35 30 21 20 22 22 23 22 22 23 23 25 22 21 22 19 13 7 9 8 16 27 25 27 24 22 20 16 16 21 22 21 17 21
38 38 38 39 39 39 39 39 39 39 38 37 35 38 35 28 26 24 25 23 24 23 23 23 22 26 27 21 18 14 11 10 5 4 13 17 23 23 24 23 21 21 22 24 18 16 25
37 37 37 38 38 38 38 37 37 37 37 38 36 37 35 30 27 27 26 25 25 26 21 20 20 18 24 19 19 16 17 15 14 20 19 18 18 17 23 23 20 22 23 21 24 28 28
37 38 38 37 37 38 38 38 38 38 38 39 36 36 37 34 30 29 28 29 29 28 26 24 22 21 24 20 18 15 13 14 13 11 12 13 20 20 22 23 24 26 20 22 25 28 29
Lifted_Index
11 10 10 10 10 10 10 10 10 9 9 8 8 8 8 8 8 7 7 7 7 6 6 6 6 6 7 8 8 7 7 7 7 7 7 6 6 5 4 3 3 3 2 1 1 1 1
11 10 10 10 10 10 10 10 10 9 9 8 8 8 8 8 8 7 7 7 7 7 6 6 6 6 7 8 7 7 7 7 7 7 7 6 6 5 4 4 3 3 2 2 1 1 2
10 10 10 10 10 10 10 10 10 9 9 8 8 8 8 8 8 8 7 7 7 7 6 6 6 7 7 8 7 7 7 7 7 7 6 6 6 5 4 4 3 3 2 2 2 1 1
10 10 9 9 9 9 9 10 10 9 9 9 8 8 8 8 8 8 8 7 7 7 6 6 6 7 7 7 7 7 6 6 6 6 6 6 5 5 4 3 3 2 2 2 1 1 1
9 9 9 9 9 10 10 10 10 10 9 9 9 9 9 8 8 8 8 7 7 7 6 6 7 7 7 7 7 6 6 6 6 5 5 5 5 5 4 4 3 3 2 2 1 1 1
9 9 9 9 9 10 10 10 10 10 10 10 10 10 9 9 8 8 8 8 8 7 7 6 7 7 8 7 7 6 6 6 5 5 5 5 5 5 5 4 3 3 3 2 2 2 2
9 9 9 9 10 10 10 10 11 11 11 11 11 10 10 9 8 8 8 8 8 8 7 7 7 7 8 7 7 6 6 5 5 5 5 5 5 5 5 4 4 4 3 3 2 2 2
9 9 9 10 10 11 11 11 11 12 12 12 12 11 10 10 9 9 9 9 9 8 7 6 7 7 7 7 7 6 6 6 5 5 5 5 5 5 5 4 4 4 3 3 3 2 2
10 10 10 11 11 12 12 12 12 12 12 12 12 12 11 10 9 9 9 9 9 8 6 5 6 7 7 7 7 6 6 6 6 5 5 5 5 5 5 4 4 4 3 3 3 2 2
10 11 11 12 13 13 13 13 12 12 12 12 12 12 11 10 10 9 9 9 9 7 5 4 5 6 7 6 6 6 6 6 5 5 5 5 5 5 5 4 4 3 3 3 3 2 2
11 12 13 13 13 13 13 13 13 13 13 13 12 12 11 10 10 9 9 9 8 6 3 3 5 6 6 6 6 5 5 5 5 5 5 5 5 5 5 4 4 3 3 3 3 2 2
13 13 14 14 14 13 13 13 13 13 13 13 13 12 11 10 9 9 8 8 6 4 3 3 4 5 5 5 5 5 5 5 5 4 4 4 5 5 4 4 4 4 3 2 2 2 2
14 14 14 14 14 14 14 14 14 14 14 13 13 12 11 9 9 8 8 7 5 3 3 3 4 4 4 4 4 4 4 4 4 3 3 3 4 4 4 4 4 4 3 2 1 1 1
15 15 15 15 15 15 15 15 15 15 14 13 12 11 9 8 8 8 7 5 4 3 4 4 4 4 4 4 4 4 4 3 3 3 3 2 2 3 4 4 4 4 3 2 1 1 1
16 16 16 16 16 16 16 16 16 15 14 13 12 10 8 7 8 8 6 4 3 4 5 5 5 4 4 4 5 5 4 4 4 4 3 3 3 3 4 4 4 4 3 3 2 2 1
17 17 17 17 17 17 17 16 16 15 14 13 11 9 7 7 8 7 6 5 5 5 6 5 5 5 4 5 5 5 4 4 5 5 4 4 3 3 3 3 3 3 3 3 3 2 1
17 17 17 17 17 17 17 16 16 15 14 13 11 8 8 8 8 7 6 5 6 6 6 6 5 5 5 5 5 5 5 5 5 5 5 5 4 3 3 3 2 3 3 3 3 2 2
17 17 17 17 17 17 17 16 16 15 14 13 10 8 7 7 7 6 6 6 6 6 6 6 6 6 6 6 6 5 5 5 6 5 5 5 5 3 3 3 2 2 2 2 2 2 2
17 17 17 17 17 17 17 17 16 15 14 12 10 8 7 7 6 6 6 6 7 7 7 6 6 6 6 6 6 6 6 6 6 6 5 5 5 3 3 3 3 2 2 2 2 2 2
17 17 17 17 17 17 17 17 16 16 15 13 10 9 8 8 7 7 7 7 7 7 8 7 7 7 7 6 6 6 7 6 6 6 6 5 5 4 3 4 4 3 3 3 2 2 1
17 17 17 16 16 16 16 16 16 15 15 13 11 10 10 9 9 9 9 8 8 8 9 9 8 8 8 7 7 7 7 7 7 6 6 6 5 5 5 4 5 4 4 3 2 2 1
16 16 16 16 15 16 16 15 15 15 15 14 13 13 12 11 10 10 10 9 9 10 11 10 10 10 10 9 9 9 9 9 8 7 6 6 6 5 5 5 5 4 4 3 3 2 2
16 16 15 15 14 15 15 15 15 15 15 15 15 15 14 12 11 11 11 11 11 12 12 12 12 11 11 12 12 12 12 11 10 9 7 7 6 5 4 4 4 4 4 4 3 3 2
15 15 14 14 14 14 14 14 14 15 15 15 16 16 14 12 12 12 12 12 12 13 13 13 13 12 12 13 12 12 11 10 10 9 8 7 6 5 4 3 3 4 5 5 4 3 3
14 14 14 13 13 13 13 14 14 14 15 15 15 16 15 13 13 13 13 13 13 14 14 13 13 13 13 13 11 9 7 7 7 7 7 7 6 5 4 2 3 4 5 5 4 3 3
13 13 13 13 13 13 13 13 13 14 14 14 15 15 15 15 14 14 14 14 14 14 14 14 13 13 12 12 10 7 5 5 5 6 6 6 6 5 4 3 3 4 5 4 4 3 3
13 13 13 13 13 13 13 13 13 13 13 14 14 14 15 15 15 15 14 14 14 14 14 14 13 13 12 11 10 8 7 7 6 6 6 7 6 5 4 4 3 4 4 4 4 3 3
13 13 13 13 13 13 13 13 13 13 13 13 13 13 14 14 14 14 13 13 13 13 13 13 13 12 11 11 10 10 9 9 8 8 7 7 6 5 4 4 3 3 4 4 4 4 4
13 13 13 13 13 13 13 13 13 13 13 13 13 13 13 13 14 13 13 13 12 12 12 12 12 12 11 10 10 10 10 9 9 8 7 6 6 5 4 3 3 3 3 4 4 4 4